Location: Bidwell Hollow
(37.7387°N, 90.1707°W)
Time: 02:10:56
(UTC+00:00)

Tiros 1 despin weight - Pass Details

Date: 16 May 2026
Orbit: 554 x 591 km, 48.2° (Epoch: 6 June)

Event Time Altitude Azimuth Distance (km) Brightness Sun altitude
Rises 10:22:59 0° 236° (SW) 2,760 - -5.6°
Exits shadow 10:24:30 - 236° (WSW) 2,152 ? -5.3°
Reaches altitude 10° 10:25:15 10° 237° (WSW) 1,859 ? -5.2°
Maximum altitude 10:29:30 86° 323° (NW) 568 ? -4.5°
Drops below altitude 10° 10:33:44 10° 56° (NE) 1,846 ? -3.7°
Sets 10:35:59 0° 56° (ENE) 2,739 ? -3.3°
